EW7556 Coral Springs FL US current weather conditions

sailwx.info

Wind from 294 at 1 knots gusting 4

Air temperature 13.9° C
Dewpoint 9.1° C

Last reported at 2020-Aug-13 16:01 UTC.
Time now 2020-Aug-13 16:31 UTC

Location: N 48°06' W 123°10'.
View on Google Maps.

See reports from other nearby stations

  
Tides and Currents Weather Stations Pressure Air Temp Water Temp Dewpoint Dewpoint Depression Visibility Wind Speed Wind Dir Waves Ship Positions
date/time (UTC)wind fromknots sea level pressurealtimeterstation pressurevisibilityair tempwater tempwave heightnotes
2020-Aug-13 16:01 294 1 gusting 4 13.9
2020-Aug-13 15:45 267 2 gusting 4 13.9
2020-Aug-13 15:31 300 0 gusting 3 13.9
2020-Aug-13 15:16 289 12.8
2020-Aug-13 15:00 250 11.7
2020-Aug-13 14:46 252 10.6
2020-Aug-13 14:31 246 9.4
2020-Aug-13 14:16 263 8.3
2020-Aug-13 14:02 255 7.2
2020-Aug-13 13:46 224 6.1
2020-Aug-13 13:31 269 5.6
2020-Aug-13 12:46 261 5.6
2020-Aug-13 12:31 243 5.6
2020-Aug-13 12:16 245 6.1
2020-Aug-13 11:47 215 6.7
2020-Aug-13 11:31 267 0 gusting 1 6.7
2020-Aug-13 11:16 260 0 gusting 1 6.7
2020-Aug-13 11:01 257 0 gusting 1 6.7
2020-Aug-13 10:46 221 6.1
2020-Aug-13 10:32 221 6.7
2020-Aug-13 10:16 221 6.7
2020-Aug-13 10:01 209 6.7
2020-Aug-13 09:46 241 6.1
2020-Aug-13 09:31 240 0 gusting 1 6.1
2020-Aug-13 09:16 254 6.1
2020-Aug-13 09:03 254 6.7
2020-Aug-13 08:45 253 0 gusting 1 6.7
2020-Aug-13 08:31 257 7.2
2020-Aug-13 08:15 231 7.8
2020-Aug-13 08:00 261 7.8
2020-Aug-13 07:47 230 7.8
2020-Aug-13 07:31 230 8.3
2020-Aug-13 07:16 238 8.9
2020-Aug-13 07:03 238 10.0
2020-Aug-13 06:46 238 10.6
2020-Aug-13 06:31 263 11.7
2020-Aug-13 06:16 272 1 gusting 4 11.7
2020-Aug-13 06:02 279 11.7
2020-Aug-13 05:46 288 0 gusting 5 11.7
2020-Aug-13 05:32 250 1 gusting 5 12.2
2020-Aug-13 05:16 250 0 gusting 3 12.2
2020-Aug-13 05:00 252 1 gusting 6 12.2
2020-Aug-13 04:45 231 0 gusting 4 12.2
2020-Aug-13 04:30 261 1 gusting 5 12.8
2020-Aug-13 04:15 246 1 gusting 5 12.8
2020-Aug-13 04:00 246 1 gusting 4 12.8
2020-Aug-13 03:45 268 0 gusting 4 13.3
2020-Aug-13 03:30 274 2 gusting 7 13.9
2020-Aug-13 03:15 227 2 gusting 8 13.9
2020-Aug-13 03:00 248 3 gusting 10 14.4
2020-Aug-13 02:45 270 3 gusting 8 15.0
2020-Aug-13 02:30 308 4 gusting 7 15.0
2020-Aug-13 02:16 299 1 gusting 8 15.0
2020-Aug-13 02:00 293 2 gusting 8 15.0
2020-Aug-13 01:45 293 1 gusting 8 15.0
2020-Aug-13 01:30 249 1 gusting 6 15.6
2020-Aug-13 01:15 278 1 gusting 6 15.6
2020-Aug-13 01:00 311 1 gusting 6 17.2
2020-Aug-13 00:45 246 2 gusting 6 17.2
2020-Aug-13 00:30 291 2 gusting 6 18.3
2020-Aug-13 00:15 274 1 gusting 6 18.3
2020-Aug-12 23:46 289 1 gusting 6 18.9
2020-Aug-12 23:30 073 0 gusting 5 20.0
2020-Aug-12 23:15 051 0 gusting 4 19.4
2020-Aug-12 23:00 229 0 gusting 3 19.4
2020-Aug-12 22:45 240 20.0
2020-Aug-12 22:30 237 18.9
2020-Aug-12 22:15 034 1 gusting 5 18.9
2020-Aug-12 22:00 032 0 gusting 3 18.9
2020-Aug-12 21:45 067 0 gusting 5 18.9
2020-Aug-12 21:30 359 18.9
2020-Aug-12 21:15 105 1 gusting 4 18.3
2020-Aug-12 20:45 065 1 gusting 6 18.9
2020-Aug-12 20:30 090 18.3
2020-Aug-12 20:15 117 1 gusting 5 17.8
2020-Aug-12 19:46 320 0 gusting 6 17.2
2020-Aug-12 19:31 316 1 gusting 5 17.2
2020-Aug-12 19:16 273 1 gusting 5 17.2
2020-Aug-12 18:47 128 0 gusting 4 17.8
2020-Aug-12 18:32 070 17.8
2020-Aug-12 18:17 077 2 gusting 5 17.8
2020-Aug-12 18:01 157 1 gusting 5 17.2
2020-Aug-12 17:46 079 1 gusting 6 17.2
2020-Aug-12 17:31 025 0 gusting 4 17.2
2020-Aug-12 17:18 060 17.2
2020-Aug-12 17:00 015 0 gusting 5 17.2
2020-Aug-12 16:46 027 0 gusting 5 16.7
2020-Aug-12 16:32 074 0 gusting 3 16.1
2020-Aug-12 16:16 041 1 gusting 3 16.7
2020-Aug-12 16:00 053 16.1
2020-Aug-12 15:46 024 16.1
2020-Aug-12 15:31 103 15.6
2020-Aug-12 15:17 103 1 gusting 2 15.0
2020-Aug-12 15:01 158 14.4
2020-Aug-12 14:45 134 12.8
2020-Aug-12 14:30 150 11.1
2020-Aug-12 14:16 254 9.4
2020-Aug-12 14:00 254 8.3
2020-Aug-12 13:45 254 7.2
2020-Aug-12 13:30 252 6.7
2020-Aug-12 13:15 257 6.1
2020-Aug-12 12:45 238 6.7
2020-Aug-12 12:30 153 6.7
2020-Aug-12 12:15 256 0 gusting 2 7.2
2020-Aug-12 11:30 250 7.2
2020-Aug-12 11:15 283 7.2
2020-Aug-12 10:46 243 6.7
2020-Aug-12 10:33 245 7.2
2020-Aug-12 10:16 259 7.8
2020-Aug-12 09:46 221 8.9
2020-Aug-12 09:31 224 9.4
2020-Aug-12 09:16 257 10.6
2020-Aug-12 09:01 212 11.1
2020-Aug-12 08:46 225 11.7
2020-Aug-12 08:31 238 1 gusting 6 11.7
2020-Aug-12 08:16 227 3 gusting 7 11.7
2020-Aug-12 08:01 252 11.7
2020-Aug-12 07:46 269 0 gusting 3 11.7
2020-Aug-12 07:31 250 2 gusting 7 12.2
2020-Aug-12 07:16 272 3 gusting 9 12.2
2020-Aug-12 07:01 231 3 gusting 7 12.8
2020-Aug-12 06:47 270 3 gusting 9 12.8
2020-Aug-12 06:31 238 2 gusting 7 12.8
2020-Aug-12 06:17 259 4 gusting 10 12.8
2020-Aug-12 06:01 233 3 gusting 10 12.8
2020-Aug-12 05:46 229 4 gusting 11 12.8
2020-Aug-12 05:31 245 4 gusting 8 12.8
2020-Aug-12 05:16 304 2 gusting 8 12.8
2020-Aug-12 04:47 264 4 gusting 8 12.8
2020-Aug-12 04:31 250 2 gusting 10 12.8
2020-Aug-12 04:16 273 5 gusting 11 12.8
2020-Aug-12 04:01 258 4 gusting 11 12.8
2020-Aug-12 03:46 309 4 gusting 8 12.8
2020-Aug-12 03:31 269 3 gusting 12 12.8
2020-Aug-12 02:47 276 3 gusting 12 13.3
2020-Aug-12 02:31 290 5 gusting 10 13.9
2020-Aug-12 02:17 262 4 gusting 10 13.9
2020-Aug-12 01:46 268 3 gusting 14 13.3
2020-Aug-12 01:31 276 6 gusting 17 13.3
2020-Aug-12 01:16 295 4 gusting 16 13.9
2020-Aug-12 01:01 250 4 gusting 11 14.4
2020-Aug-12 00:45 286 3 gusting 9 15.0
2020-Aug-12 00:31 295 6 gusting 12 15.0
2020-Aug-12 00:16 274 3 gusting 13 15.6
2020-Aug-12 00:01 308 4 gusting 10 15.6
2020-Aug-11 23:45 261 5 gusting 13 16.1
2020-Aug-11 23:31 263 4 gusting 10 16.7
2020-Aug-11 23:16 265 4 gusting 10 17.2
2020-Aug-11 23:01 310 2 gusting 8 17.8
2020-Aug-11 22:45 293 3 gusting 9 17.2
2020-Aug-11 22:31 285 4 gusting 8 17.8
2020-Aug-11 22:17 307 2 gusting 10 17.8
2020-Aug-11 22:02 327 4 gusting 8 17.8
2020-Aug-11 21:46 266 2 gusting 5 18.3
2020-Aug-11 21:32 297 2 gusting 6 18.3
2020-Aug-11 21:16 302 2 gusting 7 17.8
2020-Aug-11 21:02 294 3 gusting 6 17.8
2020-Aug-11 20:47 285 2 gusting 6 17.8
2020-Aug-11 20:32 299 2 gusting 7 17.2
2020-Aug-11 20:18 319 4 gusting 9 16.7
2020-Aug-11 20:02 309 4 gusting 8 16.7
2020-Aug-11 19:46 283 4 gusting 9 16.7
2020-Aug-11 19:32 274 3 gusting 7 16.7
2020-Aug-11 19:16 278 3 gusting 11 16.1
2020-Aug-11 19:01 302 4 gusting 7 16.7
2020-Aug-11 18:46 302 3 gusting 5 17.2
2020-Aug-11 18:32 304 1 gusting 5 17.2
2020-Aug-11 18:17 288 1 gusting 5 16.7
2020-Aug-11 18:02 294 3 gusting 5 16.1
2020-Aug-11 17:46 246 3 gusting 6 15.6
2020-Aug-11 17:33 285 3 gusting 6 15.6
2020-Aug-11 17:17 290 4 gusting 7 15.0
2020-Aug-11 17:01 241 2 gusting 9 15.0
2020-Aug-11 16:45 289 1 gusting 6 15.0
2020-Aug-11 16:31 280 2 gusting 6 14.4
2020-Aug-11 16:16 263 3 gusting 7 14.4
2020-Aug-11 16:01 308 2 gusting 5 13.9